Regional Weather Roundup
Issued by NWS

Home | Current Version | Previous Version | Text Only | Print | Product List | Glossary Off
Versions: 1 2 3 4 5 6 7 8 9 10 11 12 13 14 15 16 17 18 19 20 21 22 23 24 25 26 27 28 29 30 31 32 33 34 35 36 37 38 39 40 41 42 43 44 45 46 47 48 49 50

988
ASUS43 KBIS 261602
RWRND

NORTH DAKOTA REGIONAL WEATHER ROUNDUP
NATIONAL WEATHER SERVICE BISMARCK ND
1000 AM CST SUN FEB 26 2017

NOTE: "FAIR" INDICATES FEW OR NO CLOUDS BELOW 12,000 FEET WITH NO
SIGNIFICANT WEATHER AND/OR OBSTRUCTIONS TO VISIBILITY.


NDZ001>003-009>011-017-261700-
NORTHWEST NORTH DAKOTA

CITY           SKY/WX    TMP DP  RH WIND       PRES   REMARKS
WILLISTON      LGT SNOW  16  12  84 NE3       29.73S FOG
MINOT          FLURRIES   9   5  84 SW8       29.76R WCI  -3
MINOT AFB      SUNNY      9   6  86 SW7       29.76R WCI  -2
$$

NDZ018>021-031>035-040>046-261700-
SOUTHWEST NORTH DAKOTA

CITY           SKY/WX    TMP DP  RH WIND       PRES   REMARKS
BISMARCK       CLOUDY    16  11  80 SE6       29.79R WCI   7
DICKINSON      FAIR      22  16  78 W9        29.66R WCI  12
GARRISON         N/A     11   8  88 CALM      29.76R
HETTINGER ARPT CLOUDY    25  18  74 W17       29.71S WCI  12
$$

NDZ004>008-012>016-024-026-027-054-261700-
NORTHEAST NORTH DAKOTA

CITY           SKY/WX    TMP DP  RH WIND       PRES   REMARKS
GRAND FORKS    SUNNY     11   0  61 W7        29.84R WCI   0
GRND FRKS AFB  SUNNY     11   2  65 NW7       29.83R WCI   0
DEVILS LAKE    FAIR       2  -1  88 W5        29.80R WCI  -8
$$

NDZ022-023-025-028>030-036>039-047>053-261700-
SOUTHEAST NORTH DAKOTA

CITY           SKY/WX    TMP DP  RH WIND       PRES   REMARKS
FARGO          MOSUNNY   14   6  70 MISG      29.85R
JAMESTOWN      FAIR      16   8  71 CALM      29.79R
$$





USA.gov is the U.S. government's official web portal to all federal, state and local government web resources and services.